Content
SEND FEEDBACK

Daily
Averages
Monthly
Summary
United States of America

BOX ELDER, SOUTH DAKOTA


Home > North America > United States > South Dakota
Elevation: 3170 feet     Latitude: 44 09N     Longitude: 103 06W

WEATHER
 
SELECT A DAY
Number of Records: 207,997;   Date Range: 1/1/95 - 10/30/14
 
SHARE

PRINT THIS DATA

[ ← Previous Day ]
WEATHER ALMANAC - JANUARY 16, 2013
[ Next Day → ]
[ °C ]   °F
Weather ElementAverageHighLow
Temperature41.1 °F47.5 °F (12:55 pm)30.4 °F (11:55 pm)
Dewpoint21.6 °F26.1 °F (1:55 am)19.4 °F (11:55 pm)
Humidity46.8 %64 % (11:55 pm)38 % (8:55 am)
Barometer30.11 in30.31 in (11:55 pm)29.97 in (1:55 am)
Wind Speed16.3 mph33.4 mph (11:55 am)
Wind Gust42.6 mph (11:55 am)
Weather ElementAverage
Visibility10 mi
Wind DirectionWNW (307 °)

Weather ElementTotal
Precipitation---
Heating Degree Days26.1 (Base 65)
Averaged from 23 records on January 16, 2013
WEATHER CONDITIONS BREAKOUT
WIND DIRECTION BREAKOUT
WEATHER BY HOUR - JANUARY 16, 2013
[ °C ]   °F
Local TimeTemperatureDewpointHumidityBarometerVisibilityWind DirectionWind SpeedGust SpeedPrecipitationEventsConditions
1:55 AM40.5 °F26.1 °F57 %29.97 in10.0 miNW (320°)18.4 mphClear
2:55 AM41.2 °F23.9 °F50 %29.99 in10.0 miWNW (290°)16.1 mphMostly Cloudy
3:55 AM40.8 °F22.8 °F49 %29.99 in10.0 miNW (310°)15.0 mphMostly Cloudy
4:55 AM42.1 °F21.9 °F45 %29.97 in10.0 miWest (270°)4.6 mphOvercast
5:55 AM42.8 °F20.7 °F41 %29.98 in10.0 miNW (310°)15.0 mph20.7 mphOvercast
6:55 AM43.2 °F20.7 °F41 %29.98 in10.0 miWNW (300°)18.4 mph26.5 mphScattered Clouds
7:55 AM44.1 °F20.1 °F39 %29.98 in10.0 miWNW (300°)21.9 mph31.1 mphMostly Cloudy
8:55 AM44.4 °F19.9 °F38 %30.01 in10.0 miNW (320°)27.6 mph35.7 mphOvercast
9:55 AM44.4 °F20.5 °F39 %30.05 in10.0 miNW (310°)24.2 mph36.8 mphOvercast
10:55 AM44.6 °F21.4 °F40 %30.07 in10.0 miNW (320°)24.2 mph34.5 mphOvercast
11:55 AM45.9 °F21.9 °F39 %30.07 in10.0 miNW (320°)33.4 mph42.6 mphPartly Cloudy
12:55 PM47.5 °F22.6 °F38 %30.07 in10.0 miNW (310°)25.3 mph32.2 mphPartly Cloudy
1:55 PM46.4 °F21.7 °F38 %30.11 in10.0 miNNW (330°)24.2 mphOvercast
2:55 PM44.2 °F22.3 °F42 %30.14 in10.0 miNW (320°)15.0 mph24.2 mphMostly Cloudy
3:55 PM43.3 °F22.1 °F43 %30.14 in10.0 miNW (320°)13.8 mphScattered Clouds
4:55 PM41.7 °F21.0 °F44 %30.18 in10.0 miNNW (340°)11.5 mphOvercast
5:55 PM40.5 °F21.7 °F47 %30.21 in10.0 miNW (320°)11.5 mphMostly Cloudy
6:55 PM37.8 °F22.1 °F53 %30.22 in10.0 miWNW (300°)10.4 mphMostly Cloudy
7:55 PM33.3 °F21.6 °F62 %30.24 in10.0 miWNW (300°)8.1 mphClear
8:55 PM35.1 °F21.7 °F58 %30.26 in10.0 miNW (310°)11.5 mphClear
9:55 PM37.4 °F21.0 °F52 %30.26 in10.0 miNW (310°)12.7 mphClear
10:55 PM33.3 °F19.8 °F58 %30.29 in10.0 miWest (270°)5.8 mphClear
11:55 PM30.4 °F19.4 °F64 %30.31 in10.0 miWest (260°)6.9 mphClear
Hourly data recorded from KRCA, located miles away from Box Elder, South Dakota







STORIES FROM OUR PARTNERS